Retour au catalogue

IRIDE-MS1-EAG2-11

ActifScienceSSO
NORAD 68453·PAYLOAD·🇮🇹 Italy

Lancé Mar 30, 2026 depuis Vandenberg Space Force Base

Loading…

Prochains Passages (prochaines 24 heures)

TLE

FraisSource: Space-Track

Époque: Sep 14, 2026, 15:10 UTC

1 68453U 26067AP  26257.63248078  .00006495  00000-0  30583-3 0  9993
2 68453  97.4644 215.0370 0004298  77.8896 282.2821 15.19865309 25524

Suivez IRIDE-MS1-EAG2-11 en temps réel avec AllMySat

Download on the App Store